BEL9YD LPFR-EBBR

Flight info

Callsign BEL9YD
Flight time N/A
Altitude 36000
Route EVURA DCT BARDI DCT DELOG DCT YURZI UL14 TEPRA UN867 MOKOR DCT VEKIN DCT ARVOL
Aircraft A20N/M-DE3FGHIJ1LORVWY/HB1G1

Departure

Time 2026-05-07 09:28
Airport Faro - Gago Coutinho International Airport (LPFR)

Arrival

Time N/A
Airport Brussels Airport (EBBR)
Time Latitude Longitude Altitude Speed Heading
2026-05-07 09:18 37.01940 -7.96983 27 ft 0 kts 10°
2026-05-07 09:21 37.01941 -7.96983 27 ft 0 kts 10°
2026-05-07 09:22 37.01927 -7.96986 27 ft 2 kts
2026-05-07 09:22 37.01912 -7.96989 27 ft 2 kts 10°
2026-05-07 09:22 37.01897 -7.96992 27 ft 2 kts
2026-05-07 09:23 37.01882 -7.96996 27 ft 2 kts 10°
2026-05-07 09:23 37.01868 -7.96999 27 ft 2 kts
2026-05-07 09:23 37.01853 -7.97002 27 ft 2 kts 10°
2026-05-07 09:23 37.01838 -7.97005 26 ft 2 kts
2026-05-07 09:24 37.01835 -7.97006 26 ft 0 kts
2026-05-07 09:24 37.01844 -7.96999 27 ft 3 kts 69°
2026-05-07 09:24 37.01829 -7.96843 27 ft 34 kts 98°
2026-05-07 09:24 37.01799 -7.96637 28 ft 14 kts 101°
2026-05-07 09:25 37.01762 -7.96396 19 ft 30 kts 101°
2026-05-07 09:25 37.01737 -7.96226 19 ft 15 kts 99°
2026-05-07 09:25 37.01725 -7.96131 21 ft 13 kts 103°
2026-05-07 09:25 37.01642 -7.96087 22 ft 9 kts 182°
2026-05-07 09:26 37.01619 -7.96025 22 ft 10 kts 101°
2026-05-07 09:26 37.01573 -7.95866 18 ft 16 kts 163°
2026-05-07 09:26 37.01473 -7.95844 18 ft 14 kts 177°
2026-05-07 09:26 37.01373 -7.95861 19 ft 12 kts 192°
2026-05-07 09:27 37.01356 -7.95985 23 ft 37 kts 279°
2026-05-07 09:27 37.01443 -7.96601 24 ft 105 kts 279°
2026-05-07 09:27 37.01824 -7.99220 385 ft 176 kts 281°
2026-05-07 09:28 37.02432 -8.00461 1093 ft 172 kts 324°
2026-05-07 09:28 37.03436 -8.01256 1756 ft 175 kts 329°
2026-05-07 09:28 37.04491 -8.02047 2344 ft 183 kts 328°
2026-05-07 09:28 37.05644 -8.02891 2791 ft 202 kts 342°
2026-05-07 09:29 37.07090 -8.03012 3239 ft 220 kts
2026-05-07 09:29 37.08677 -8.02716 3795 ft 238 kts
2026-05-07 09:29 37.10371 -8.02464 4328 ft 256 kts
2026-05-07 09:29 37.12196 -8.02295 5009 ft 267 kts
2026-05-07 09:30 37.14045 -8.02193 5806 ft 273 kts
2026-05-07 09:30 37.15971 -8.02127 6642 ft 278 kts
2026-05-07 09:30 37.17892 -8.02083 7498 ft 281 kts
2026-05-07 09:30 37.19865 -8.02052 8348 ft 284 kts
2026-05-07 09:31 37.21844 -8.02031 9181 ft 287 kts 359°
2026-05-07 09:31 37.23832 -8.02017 9985 ft 290 kts 359°
2026-05-07 09:31 37.25881 -8.02005 10631 ft 299 kts 359°
2026-05-07 09:31 37.28016 -8.01995 11019 ft 317 kts 359°
2026-05-07 09:32 37.30275 -8.01986 11440 ft 332 kts 359°
2026-05-07 09:32 37.32592 -8.01974 12130 ft 337 kts 359°
2026-05-07 09:32 37.34962 -8.01962 12907 ft 340 kts 359°
2026-05-07 09:32 37.37335 -8.01950 13660 ft 342 kts 359°
2026-05-07 09:33 37.39690 -8.01938 14376 ft 345 kts 358°
2026-05-07 09:33 37.42096 -8.01925 15103 ft 347 kts 358°
2026-05-07 09:33 37.44522 -8.01912 15838 ft 348 kts 357°
2026-05-07 09:33 37.46937 -8.01900 16527 ft 351 kts 357°
2026-05-07 09:34 37.49398 -8.01889 17194 ft 353 kts 357°
2026-05-07 09:34 37.51843 -8.01880 17835 ft 355 kts 356°
2026-05-07 09:34 37.54319 -8.01867 18484 ft 357 kts 356°
2026-05-07 09:34 37.56820 -8.01857 19131 ft 359 kts 356°
2026-05-07 09:35 37.59295 -8.01831 19725 ft 362 kts 358°
2026-05-07 09:35 37.61840 -8.01651 20349 ft 364 kts 360°
2026-05-07 09:35 37.64351 -8.01422 20968 ft 365 kts 360°
2026-05-07 09:35 37.66867 -8.01184 21533 ft 367 kts 360°
2026-05-07 09:36 37.69438 -8.00942 22105 ft 368 kts 360°
2026-05-07 09:36 37.71995 -8.00705 22671 ft 369 kts 360°
2026-05-07 09:36 37.74561 -8.00464 23204 ft 371 kts 359°
2026-05-07 09:36 37.77124 -8.00225 23723 ft 373 kts 359°
2026-05-07 09:37 37.79713 -7.99981 24250 ft 374 kts 359°
2026-05-07 09:37 37.82323 -7.99736 24756 ft 375 kts 358°
2026-05-07 09:37 37.84914 -7.99503 25313 ft 375 kts 358°
2026-05-07 09:37 37.87508 -7.99255 25752 ft 378 kts 358°
2026-05-07 09:38 37.90155 -7.99008 26151 ft 381 kts 358°
2026-05-07 09:38 37.92802 -7.98758 26576 ft 383 kts 357°
2026-05-07 09:38 37.95468 -7.98509 26803 ft 390 kts 358°
2026-05-07 09:38 37.98212 -7.98257 27031 ft 396 kts 357°
2026-05-07 09:39 38.00987 -7.97999 27384 ft 398 kts 358°
2026-05-07 09:39 38.03740 -7.97739 27780 ft 400 kts 358°
2026-05-07 09:39 38.06520 -7.97478 28176 ft 400 kts 357°
2026-05-07 09:39 38.09278 -7.97217 28660 ft 399 kts 357°
2026-05-07 09:40 38.12071 -7.96949 29193 ft 396 kts 356°
2026-05-07 09:40 38.14790 -7.96694 29696 ft 394 kts 356°
2026-05-07 09:40 38.17529 -7.96435 30242 ft 391 kts 356°
2026-05-07 09:40 38.20211 -7.96183 30778 ft 389 kts 356°
2026-05-07 09:41 38.22922 -7.95929 31218 ft 388 kts 355°
2026-05-07 09:41 38.25597 -7.95683 31635 ft 387 kts 356°
2026-05-07 09:41 38.28302 -7.95431 32086 ft 385 kts 356°
2026-05-07 09:41 38.30956 -7.95180 32514 ft 384 kts 355°
2026-05-07 09:42 38.33611 -7.94933 32887 ft 383 kts 356°
2026-05-07 09:42 38.36292 -7.94684 33267 ft 382 kts 355°
2026-05-07 09:42 38.38959 -7.94431 33623 ft 381 kts 356°
2026-05-07 09:42 38.41591 -7.94184 33959 ft 380 kts 356°
2026-05-07 09:43 38.44247 -7.93936 34349 ft 378 kts 356°
2026-05-07 09:43 38.46868 -7.93685 34617 ft 377 kts 356°
2026-05-07 09:43 38.49481 -7.93439 34796 ft 379 kts 355°
2026-05-07 09:43 38.52115 -7.93191 34954 ft 381 kts 355°
2026-05-07 09:44 38.54791 -7.92943 35124 ft 382 kts 356°
2026-05-07 09:44 38.57424 -7.92694 35250 ft 384 kts 356°
2026-05-07 09:44 38.60127 -7.92321 35423 ft 390 kts
2026-05-07 09:44 38.62791 -7.91684 35586 ft 395 kts
2026-05-07 09:45 38.65509 -7.90758 35683 ft 402 kts
2026-05-07 09:45 38.68170 -7.89560 35791 ft 409 kts 13°
2026-05-07 09:45 38.70821 -7.88045 35879 ft 415 kts 18°
2026-05-07 09:46 38.75847 -7.84272 35872 ft 421 kts 24°
2026-05-07 09:46 38.80781 -7.80216 35894 ft 422 kts 24°
2026-05-07 09:47 38.85769 -7.76110 35881 ft 423 kts 24°
2026-05-07 09:47 38.90758 -7.72010 35872 ft 424 kts 24°
2026-05-07 09:48 38.95705 -7.67938 35866 ft 423 kts 25°
2026-05-07 09:48 39.00683 -7.63840 35866 ft 423 kts 25°
2026-05-07 09:49 39.05664 -7.59731 35867 ft 424 kts 25°
2026-05-07 09:49 39.10651 -7.55611 35875 ft 425 kts 25°
2026-05-07 09:50 39.15674 -7.51469 35878 ft 423 kts 25°
2026-05-07 09:50 39.20652 -7.47356 35873 ft 424 kts 25°
2026-05-07 09:51 39.25605 -7.43246 35872 ft 424 kts 25°
2026-05-07 09:51 39.30591 -7.39099 35879 ft 424 kts 26°
2026-05-07 09:52 39.35534 -7.34983 35881 ft 424 kts 26°
2026-05-07 09:52 39.40500 -7.30812 35868 ft 426 kts 27°
2026-05-07 09:53 39.45452 -7.26648 35867 ft 427 kts 27°
2026-05-07 09:53 39.50457 -7.22446 35883 ft 427 kts 26°
2026-05-07 09:54 39.55395 -7.18299 35888 ft 426 kts 27°
2026-05-07 09:54 39.60370 -7.14117 35881 ft 426 kts 27°
2026-05-07 09:55 39.65329 -7.09943 35868 ft 425 kts 27°
2026-05-07 09:55 39.70294 -7.05754 35869 ft 425 kts 27°
2026-05-07 09:56 39.75223 -7.01587 35869 ft 424 kts 27°
2026-05-07 09:56 39.80181 -6.97392 35869 ft 426 kts 27°
2026-05-07 09:57 39.85146 -6.93184 35855 ft 426 kts 28°
2026-05-07 09:57 39.90104 -6.88973 36108 ft 427 kts 28°
2026-05-07 09:57 39.92605 -6.86845 35976 ft 427 kts 27°
2026-05-07 09:58 39.95053 -6.84756 35922 ft 426 kts 28°
2026-05-07 09:58 40.00032 -6.80513 35870 ft 426 kts 28°
2026-05-07 09:59 40.04965 -6.76301 35871 ft 426 kts 28°
2026-05-07 09:59 40.09940 -6.72049 35867 ft 427 kts 28°
2026-05-07 10:00 40.14936 -6.67783 35881 ft 429 kts 28°
2026-05-07 10:00 40.19947 -6.63493 35880 ft 431 kts 28°
2026-05-07 10:01 40.24932 -6.59210 35887 ft 432 kts 28°
2026-05-07 10:01 40.29951 -6.54888 35890 ft 432 kts 28°
2026-05-07 10:02 40.34973 -6.50550 35890 ft 433 kts 29°
2026-05-07 10:02 40.39994 -6.46206 35892 ft 434 kts 29°
2026-05-07 10:03 40.45038 -6.41833 35888 ft 435 kts 29°
2026-05-07 10:03 40.50073 -6.37455 35895 ft 437 kts 29°
2026-05-07 10:03 40.52623 -6.35241 36018 ft 438 kts 30°
2026-05-07 10:04 40.55163 -6.33028 36243 ft 436 kts 30°
2026-05-07 10:04 40.57754 -6.30941 36403 ft 435 kts 26°
2026-05-07 10:04 40.60405 -6.29081 36545 ft 434 kts 23°
2026-05-07 10:04 40.63149 -6.27399 36648 ft 435 kts 21°
2026-05-07 10:05 40.65925 -6.25782 36749 ft 436 kts 20°
2026-05-07 10:05 40.71502 -6.22561 36882 ft 440 kts 20°
2026-05-07 10:06 40.77133 -6.19294 36900 ft 441 kts 21°
2026-05-07 10:06 40.82722 -6.16037 36900 ft 441 kts 21°
2026-05-07 10:07 40.88329 -6.12763 36899 ft 442 kts 21°
2026-05-07 10:07 40.93956 -6.09470 36896 ft 441 kts 21°
2026-05-07 10:08 40.99544 -6.06193 36894 ft 441 kts 21°
2026-05-07 10:08 41.05158 -6.02897 36899 ft 442 kts 21°
2026-05-07 10:09 41.10794 -5.99580 36906 ft 442 kts 21°
2026-05-07 10:09 41.14317 -5.97513 36910 ft 443 kts 21°